Wind_Speed
27 28 28 29 31 31 29 25 23 23 23 24 24 24 23 22 22 22 20 19 19 18 18 18 18 18 17 17 17 16 15 14 13 13 12 11 11 11 10 10 9 9 8 8 9 8 8 8 8
27 28 30 31 32 32 29 26 25 24 25 25 25 25 25 24 23 23 22 21 21 20 20 20 20 19 19 18 18 17 17 16 15 14 13 13 12 12 11 11 10 10 9 9 8 9 8 9 8
28 29 30 31 32 30 29 27 26 27 27 27 27 27 26 26 25 24 24 23 23 23 22 22 21 21 20 19 19 18 18 17 17 16 15 14 14 13 12 12 12 11 10 9 9 9 9 9 9
29 30 31 32 31 30 29 28 28 29 29 29 29 28 26 26 26 25 25 25 24 24 24 24 23 23 22 22 21 20 20 19 18 18 17 16 15 15 14 13 13 12 11 10 10 9 9 9 9
30 31 32 32 31 30 30 30 30 31 30 30 30 29 28 27 27 27 26 26 26 26 26 25 25 25 24 24 23 22 21 21 20 19 19 18 17 17 15 15 14 14 13 12 11 11 10 10 10
31 32 33 33 31 31 31 31 31 32 32 31 31 30 29 29 29 29 28 27 27 27 27 26 26 26 26 25 25 24 23 23 22 21 21 20 19 19 18 17 16 16 14 14 13 13 12 12 11
32 33 33 32 32 32 31 32 31 32 32 32 32 32 31 30 30 30 30 29 29 28 28 27 27 27 27 27 26 26 25 25 24 23 22 21 21 20 20 19 18 18 17 16 15 14 14 14 13
34 34 34 33 33 33 32 33 32 32 33 33 33 33 32 31 31 31 31 31 30 30 29 29 28 28 28 28 27 27 27 26 25 25 24 23 23 22 22 21 20 19 19 18 18 17 16 15 15
36 36 35 34 34 33 33 34 34 34 34 33 33 33 33 32 33 32 32 32 32 31 31 30 29 28 28 28 28 28 27 27 27 26 26 25 24 24 23 23 22 22 21 21 20 20 19 18 17
37 37 35 35 35 35 35 35 35 35 35 34 34 34 34 34 33 33 33 32 32 32 32 31 31 30 29 29 29 29 29 28 28 27 27 27 26 25 24 24 24 23 23 23 23 22 21 20 20
39 38 36 36 36 37 37 37 37 37 36 36 35 35 34 34 34 34 33 33 33 33 33 33 33 32 31 31 30 30 30 30 29 29 28 28 27 27 26 25 25 25 25 25 24 24 23 22 21
40 39 38 38 38 38 38 38 38 38 38 37 37 37 36 35 35 35 35 34 34 34 34 34 34 34 33 32 32 32 31 31 30 30 30 30 29 28 28 27 26 26 26 26 26 25 24 23 22
41 40 40 40 40 40 40 40 40 39 39 39 39 39 38 37 36 36 36 36 36 35 35 35 34 35 34 34 33 33 32 32 31 31 31 31 31 30 29 29 28 27 27 27 27 26 25 24 24
42 42 42 42 42 42 42 42 42 40 41 42 41 41 40 39 38 38 38 37 37 36 36 36 35 35 35 35 34 34 34 33 33 32 32 32 32 31 31 29 29 28 28 27 27 27 27 26 25
43 44 44 44 44 44 44 45 44 43 43 43 43 43 42 41 41 40 40 39 38 38 37 37 37 36 36 37 36 35 35 35 34 34 33 33 33 33 32 32 30 30 29 29 28 28 28 28 27
45 46 46 46 46 46 46 46 45 45 45 45 44 45 44 44 43 42 42 41 40 40 39 39 38 38 37 37 38 36 35 35 34 35 34 34 34 33 33 32 32 31 31 30 30 29 29 28 28
47 48 47 47 47 47 48 47 47 47 46 46 46 46 46 46 45 44 44 43 42 42 41 40 40 39 38 38 38 38 36 35 35 35 35 35 34 34 34 33 32 32 32 31 31 30 30 29 28
46 47 48 48 48 49 49 48 48 48 48 48 47 47 47 47 47 46 46 45 44 44 43 42 41 40 40 39 39 39 38 36 35 36 36 36 36 35 35 35 33 33 33 32 32 32 31 31 30
44 45 47 48 48 49 49 49 48 48 49 49 49 49 48 49 49 48 47 47 46 46 45 44 43 42 41 40 40 39 39 37 36 36 38 38 37 36 36 36 34 34 34 34 33 33 33 32 32
41 42 44 46 47 48 49 50 49 49 49 49 49 49 49 49 49 49 49 49 48 47 47 46 45 44 43 41 40 40 40 39 38 38 39 39 38 37 37 36 36 35 35 35 34 34 34 34 33
39 40 41 43 45 47 48 50 50 50 50 49 50 50 50 50 50 51 50 50 49 49 48 47 46 45 45 44 42 42 42 41 40 39 39 39 38 37 37 37 37 36 36 36 36 35 35 34 34
38 39 40 41 43 45 46 49 50 50 50 50 50 51 50 50 50 50 50 51 50 50 49 48 47 47 46 45 44 43 42 41 40 39 40 40 40 39 38 38 37 37 37 37 36 36 36 35 35
37 38 39 40 42 44 45 48 49 50 50 50 50 51 51 51 51 50 50 50 51 51 50 50 49 48 47 46 45 43 43 42 41 41 41 42 41 40 38 38 38 37 37 37 36 36 37 36 36
36 37 38 39 40 43 44 46 48 49 49 50 51 52 52 52 52 51 51 51 51 51 51 50 50 49 48 47 46 45 44 43 43 42 43 43 42 41 40 39 39 38 38 38 37 37 37 37 37
33 34 34 36 38 40 41 43 46 47 47 49 50 51 52 52 52 52 52 52 52 52 51 51 51 50 50 49 48 46 46 45 44 44 44 44 43 42 42 41 40 39 39 39 38 38 38 38 38
31 32 33 35 37 38 38 41 43 44 45 46 48 49 51 51 52 52 52 52 52 52 52 52 51 51 50 50 49 48 47 46 46 45 45 44 44 44 43 43 42 41 40 39 39 39 39 39 39
28 29 30 32 35 35 36 38 40 41 41 43 45 46 48 49 51 51 52 51 51 52 52 52 52 51 50 50 49 49 49 48 47 47 47 46 45 45 45 44 43 43 41 39 39 39 39 39 39
25 25 26 28 31 33 34 35 37 38 39 41 42 43 45 46 48 50 51 51 51 52 52 52 52 51 51 51 51 50 50 49 48 47 47 47 47 46 45 45 44 44 43 41 40 39 40 40 41
21 23 24 25 26 29 32 34 35 36 37 39 40 41 42 44 46 48 49 50 51 52 52 53 53 52 52 52 51 51 50 50 49 48 47 47 47 47 46 46 46 45 43 42 41 41 41 41 42
20 21 22 23 24 26 29 32 32 34 35 37 39 41 42 43 46 47 48 49 51 52 52 53 53 53 53 52 52 51 51 51 50 49 48 48 48 48 47 47 47 46 45 44 44 43 43 43 43
Wind_Direction
244 242 241 240 240 241 241 240 237 235 236 237 238 238 237 236 235 235 234 232 231 230 228 225 222 221 221 220 219 217 217 216 214 212 211 208 205 204 201 197 195 195 195 195 195 195 193 193 192
244 243 242 241 242 242 242 240 238 237 238 238 239 239 238 236 235 236 235 233 232 231 228 226 224 223 223 223 222 221 219 218 217 215 214 212 210 209 208 205 203 203 204 205 204 204 203 200 198
245 244 243 243 243 244 244 241 240 238 238 239 239 239 239 238 237 236 236 234 233 232 230 228 226 225 225 224 223 222 221 221 220 218 217 216 214 213 213 212 209 209 211 213 213 210 210 208 206
246 244 244 244 244 244 244 242 240 239 238 239 240 240 239 239 238 237 236 235 233 232 231 229 227 226 226 225 225 224 223 223 222 221 220 220 218 217 217 217 216 216 217 217 215 215 213 216 213
248 246 246 245 245 243 243 242 240 239 239 239 240 240 239 238 237 237 236 235 233 232 231 230 229 228 228 227 226 227 226 224 223 223 222 223 221 221 221 221 221 221 222 222 220 220 220 221 218
250 248 247 247 246 245 243 242 240 239 239 239 239 239 238 237 237 236 235 235 233 232 231 230 229 229 229 229 228 228 228 227 226 225 224 224 225 225 225 225 226 226 226 225 226 227 226 228 228
250 249 248 247 245 244 243 242 240 240 239 239 239 239 238 237 236 236 236 235 233 232 231 230 230 230 230 231 230 229 229 228 227 227 227 226 226 227 228 228 229 229 230 230 231 231 233 234 234
251 250 248 247 245 244 243 242 240 239 239 238 238 237 237 237 236 236 236 235 234 233 232 231 230 230 230 231 230 230 229 228 228 228 229 229 228 229 230 231 232 232 233 233 233 234 235 238 238
251 250 249 247 245 244 242 241 240 239 238 238 237 237 235 235 235 235 235 235 234 233 232 231 230 231 231 231 231 230 229 229 229 230 230 230 231 231 232 233 234 235 235 236 236 237 238 240 240
250 250 250 248 246 244 242 241 240 239 238 237 236 236 235 234 235 235 234 234 233 233 233 232 231 231 232 232 232 232 231 231 231 231 232 233 233 233 233 234 235 236 237 239 239 240 240 241 242
251 250 249 247 246 244 243 241 240 239 237 237 237 236 236 235 235 235 234 233 233 232 232 232 231 231 232 233 232 233 233 233 234 234 234 235 235 235 235 236 237 238 239 240 241 241 242 243 244
253 250 248 247 245 244 243 241 239 238 237 237 237 236 235 234 234 234 234 234 233 232 232 232 232 231 232 233 233 233 234 235 235 236 236 237 238 237 237 237 238 239 240 240 241 241 242 245 246
253 251 249 247 246 244 243 241 239 238 237 237 237 237 236 234 233 233 233 234 233 233 233 233 232 232 232 233 233 234 235 236 236 237 238 239 239 239 239 238 238 239 239 240 240 241 243 245 248
253 251 249 248 247 245 243 242 240 238 237 237 236 236 235 234 233 232 232 232 233 233 233 233 233 234 234 233 234 235 235 236 237 238 238 238 240 240 240 239 239 239 240 240 241 243 244 246 248
253 251 249 248 246 245 244 242 241 239 238 237 236 235 235 234 233 232 232 232 233 233 233 234 233 234 234 234 235 237 237 237 238 239 238 239 240 240 240 240 240 240 241 242 244 245 246 248 250
253 251 249 248 247 245 244 242 241 239 238 237 237 236 235 234 233 232 232 232 233 233 233 233 233 234 235 236 236 237 238 238 239 238 239 240 240 240 240 240 241 242 243 244 245 246 247 248 249
253 252 250 248 247 246 245 243 242 240 239 238 237 237 236 235 234 233 232 232 232 233 234 234 234 235 236 237 237 237 238 238 240 239 239 240 240 240 240 240 242 242 242 244 245 247 247 248 250
254 252 250 249 247 245 244 243 242 241 239 238 237 237 236 235 234 233 233 233 232 233 234 234 235 235 236 237 237 237 238 239 240 240 239 239 240 240 240 241 242 242 243 244 245 247 248 249 251
254 252 250 248 247 246 244 243 241 240 239 238 237 236 236 235 234 233 233 233 233 233 234 234 235 235 236 237 238 238 238 239 241 241 239 239 239 239 239 240 242 243 243 244 245 247 249 250 251
253 253 251 249 248 247 245 242 241 240 239 238 236 236 235 235 234 233 233 233 233 233 233 234 235 235 236 236 237 238 238 239 240 241 239 239 239 239 240 240 242 243 244 244 245 247 249 251 252
252 252 252 250 248 247 247 244 241 239 239 238 237 236 235 234 234 234 233 233 233 233 234 234 234 235 236 236 236 237 238 239 241 241 239 238 237 238 239 240 242 244 245 245 245 248 250 251 252
254 252 252 252 250 248 247 246 243 240 238 237 236 236 235 234 234 234 234 234 233 234 234 234 234 235 235 236 236 237 239 240 241 240 238 237 237 237 238 240 242 243 244 244 246 248 250 251 252
255 253 253 251 251 250 247 247 243 241 238 237 236 236 235 235 234 234 234 234 234 234 234 234 234 234 235 236 236 236 238 239 239 238 237 237 237 237 238 241 243 243 243 244 247 249 249 251 252
256 254 253 251 250 249 247 247 245 241 239 237 236 236 235 235 235 234 234 233 233 233 234 234 234 234 234 235 236 236 238 238 239 238 238 237 237 238 240 241 242 243 244 245 248 249 249 251 253
255 255 254 251 248 249 247 246 245 242 239 237 236 235 235 235 234 234 233 233 233 233 233 233 234 234 234 235 235 236 237 237 237 237 237 238 238 239 241 242 242 244 245 246 249 250 251 252 253
255 254 251 251 250 249 248 247 245 243 241 239 237 237 236 235 235 235 234 233 233 233 233 233 233 234 234 235 235 236 236 237 237 237 237 238 240 240 241 242 243 244 245 247 249 251 252 253 254
256 253 251 251 252 251 250 248 245 242 240 239 237 237 237 236 235 235 235 234 234 233 233 232 232 233 234 234 235 235 236 236 236 237 237 238 240 241 242 242 242 243 244 247 250 251 253 254 255
258 253 251 249 250 251 249 247 245 242 239 238 237 236 235 235 235 234 233 233 233 233 233 232 233 233 233 234 234 235 236 236 236 237 238 239 239 240 241 241 242 242 245 248 250 252 253 255 256
260 255 252 249 250 250 249 247 245 243 241 239 237 236 235 235 234 233 232 232 232 232 232 232 233 233 233 233 233 234 235 236 237 238 239 239 239 239 241 242 242 243 246 249 252 252 253 255 257
261 259 255 251 250 250 250 249 246 243 241 238 236 235 235 234 233 233 232 232 232 231 231 231 231 232 232 232 232 233 234 236 237 238 238 239 239 240 241 242 243 244 246 249 251 252 254 255 257
Height
5810 5812 5814 5815 5816 5817 5819 5824 5826 5828 5829 5830 5831 5833 5835 5837 5839 5842 5842 5842 5843 5845 5846 5847 5849 5851 5852 5853 5855 5856 5857 5859 5860 5861 5862 5863 5864 5865 5866 5866 5867 5868 5868 5869 5870 5871 5871 5872 5873
5805 5807 5808 5809 5810 5812 5816 5819 5822 5824 5825 5826 5827 5828 5830 5832 5834 5836 5837 5838 5840 5842 5843 5844 5846 5848 5849 5851 5852 5854 5855 5856 5858 5859 5860 5861 5862 5863 5864 5865 5866 5867 5868 5868 5869 5870 5871 5871 5872
5799 5801 5803 5803 5804 5807 5811 5814 5816 5818 5819 5820 5822 5823 5825 5828 5830 5831 5833 5834 5836 5838 5839 5841 5843 5845 5846 5848 5849 5851 5853 5854 5856 5857 5858 5859 5860 5862 5863 5864 5865 5865 5866 5867 5868 5869 5869 5870 5871
5793 5795 5796 5798 5799 5803 5805 5808 5810 5811 5813 5815 5816 5818 5821 5823 5825 5827 5828 5830 5832 5834 5835 5837 5839 5841 5843 5844 5846 5848 5850 5851 5853 5854 5856 5857 5858 5860 5861 5862 5863 5864 5865 5866 5866 5867 5868 5869 5870
5786 5788 5789 5791 5794 5796 5799 5801 5803 5805 5807 5809 5811 5813 5815 5818 5819 5821 5823 5825 5827 5829 5831 5833 5835 5837 5839 5841 5843 5844 5846 5848 5850 5851 5853 5854 5856 5857 5859 5860 5861 5862 5863 5864 5865 5866 5867 5868 5869
5780 5781 5783 5785 5788 5790 5792 5794 5796 5799 5801 5803 5805 5807 5810 5812 5814 5816 5818 5820 5822 5824 5826 5828 5830 5832 5834 5837 5839 5841 5842 5844 5846 5848 5850 5851 5853 5854 5856 5857 5859 5860 5861 5862 5863 5864 5865 5866 5867
5773 5774 5776 5779 5781 5783 5786 5787 5790 5792 5794 5796 5798 5801 5803 5806 5808 5810 5812 5814 5816 5819 5821 5823 5825 5827 5830 5832 5834 5836 5838 5840 5842 5844 5846 5848 5849 5851 5853 5854 5856 5857 5858 5860 5861 5862 5863 5864 5865
5764 5766 5768 5771 5774 5777 5779 5780 5783 5785 5787 5789 5791 5795 5798 5800 5802 5804 5806 5808 5810 5813 5815 5818 5820 5822 5825 5827 5829 5831 5834 5836 5838 5840 5842 5844 5846 5847 5849 5851 5853 5854 5855 5857 5858 5859 5860 5861 5862
5755 5758 5760 5764 5767 5769 5771 5772 5775 5777 5780 5782 5785 5788 5791 5793 5795 5797 5800 5802 5804 5807 5810 5812 5815 5817 5820 5822 5824 5826 5829 5831 5833 5835 5837 5839 5841 5843 5845 5847 5849 5850 5852 5853 5854 5856 5857 5858 5859
5746 5749 5754 5756 5758 5760 5762 5764 5767 5769 5772 5775 5777 5780 5783 5785 5788 5791 5793 5796 5798 5801 5804 5806 5809 5812 5814 5816 5819 5821 5823 5826 5828 5830 5832 5835 5837 5839 5841 5843 5844 5846 5848 5849 5851 5852 5853 5855 5856
5737 5741 5744 5746 5748 5750 5753 5755 5758 5761 5764 5767 5770 5772 5775 5778 5781 5784 5786 5789 5792 5794 5797 5800 5803 5805 5808 5811 5813 5815 5818 5820 5823 5825 5827 5829 5832 5834 5836 5838 5840 5841 5843 5845 5846 5848 5849 5850 5852
5728 5731 5733 5736 5738 5740 5743 5746 5749 5752 5756 5758 5761 5764 5767 5770 5773 5776 5779 5782 5785 5787 5790 5793 5796 5799 5801 5804 5807 5809 5812 5815 5817 5820 5822 5824 5826 5828 5831 5833 5835 5836 5838 5840 5841 5843 5844 5846 5847
5717 5720 5722 5725 5727 5730 5733 5736 5739 5743 5746 5749 5751 5755 5758 5762 5765 5768 5771 5774 5777 5780 5783 5786 5789 5792 5795 5797 5800 5803 5806 5808 5811 5814 5816 5818 5821 5823 5825 5827 5829 5831 5833 5835 5837 5838 5840 5841 5842
5706 5708 5711 5714 5716 5719 5722 5725 5729 5734 5736 5738 5742 5746 5749 5753 5756 5760 5763 5766 5769 5772 5775 5778 5782 5785 5788 5791 5794 5796 5799 5802 5804 5807 5810 5812 5814 5817 5819 5821 5824 5826 5828 5830 5831 5833 5835 5836 5837
5693 5696 5698 5702 5704 5707 5710 5714 5719 5722 5724 5728 5732 5735 5739 5743 5747 5750 5754 5757 5760 5763 5767 5770 5774 5777 5780 5783 5786 5789 5792 5795 5798 5800 5803 5805 5808 5810 5813 5815 5818 5820 5822 5824 5826 5828 5829 5831 5832
5679 5682 5685 5690 5692 5695 5699 5703 5707 5709 5713 5717 5721 5724 5728 5732 5736 5740 5744 5747 5751 5754 5758 5761 5765 5769 5772 5775 5778 5781 5784 5787 5790 5793 5795 5798 5801 5804 5806 5809 5811 5814 5816 5818 5820 5822 5824 5825 5826
5665 5669 5672 5676 5679 5682 5685 5690 5694 5697 5701 5705 5709 5713 5717 5722 5726 5730 5734 5738 5742 5745 5749 5753 5757 5760 5764 5767 5770 5773 5776 5780 5783 5785 5788 5791 5794 5797 5799 5802 5805 5807 5809 5812 5814 5816 5817 5819 5821
5653 5656 5658 5662 5665 5668 5672 5676 5681 5684 5689 5693 5697 5701 5706 5710 5715 5720 5724 5728 5732 5736 5740 5744 5748 5751 5755 5758 5761 5765 5768 5772 5775 5778 5780 5783 5786 5789 5792 5795 5798 5800 5803 5805 5807 5809 5811 5812 5814
5640 5642 5644 5648 5650 5654 5658 5662 5667 5671 5675 5680 5685 5689 5694 5699 5704 5708 5713 5718 5722 5726 5731 5735 5739 5742 5746 5750 5753 5757 5760 5764 5767 5769 5772 5775 5778 5782 5785 5788 5790 5793 5795 5798 5800 5802 5804 5805 5807
5626 5628 5631 5634 5637 5640 5644 5648 5652 5656 5662 5667 5672 5677 5682 5687 5692 5697 5702 5707 5711 5716 5721 5725 5729 5733 5737 5741 5745 5748 5752 5755 5758 5761 5764 5767 5770 5774 5777 5780 5783 5786 5788 5790 5793 5795 5797 5798 5800
5614 5617 5619 5622 5624 5626 5630 5633 5638 5643 5648 5653 5659 5664 5669 5674 5680 5684 5689 5695 5700 5705 5710 5715 5719 5723 5727 5731 5735 5739 5742 5746 5749 5752 5756 5759 5762 5765 5769 5772 5775 5777 5780 5783 5785 5787 5789 5791 5793
5602 5605 5607 5609 5611 5613 5617 5619 5624 5629 5634 5640 5645 5650 5656 5662 5667 5672 5678 5683 5688 5694 5699 5704 5709 5713 5717 5721 5725 5730 5734 5738 5741 5744 5747 5750 5754 5757 5761 5764 5766 5769 5772 5774 5777 5779 5781 5783 5785
5591 5593 5595 5597 5598 5601 5604 5606 5611 5615 5620 5627 5632 5638 5644 5649 5655 5660 5665 5671 5676 5682 5687 5692 5697 5702 5707 5711 5716 5720 5724 5728 5732 5735 5738 5742 5745 5749 5752 5755 5758 5761 5763 5766 5769 5771 5773 5775 5777
5580 5582 5583 5584 5585 5588 5592 5594 5596 5602 5608 5614 5620 5625 5631 5636 5642 5648 5653 5659 5664 5670 5676 5681 5686 5691 5696 5701 5705 5710 5715 5719 5723 5726 5729 5733 5737 5741 5744 5747 5750 5753 5755 5758 5761 5763 5765 5767 5769
5569 5571 5572 5572 5573 5576 5580 5581 5584 5590 5595 5601 5606 5612 5617 5623 5629 5635 5640 5646 5652 5658 5664 5669 5675 5680 5685 5690 5695 5700 5705 5709 5713 5716 5720 5724 5728 5732 5735 5738 5741 5744 5747 5749 5752 5754 5757 5758 5760
5559 5561 5563 5563 5564 5566 5568 5569 5573 5579 5583 5588 5593 5599 5604 5610 5616 5622 5627 5633 5639 5645 5651 5657 5663 5668 5674 5679 5684 5689 5694 5698 5703 5706 5710 5714 5719 5722 5726 5729 5733 5736 5738 5741 5744 5746 5748 5750 5752
5549 5550 5552 5554 5554 5556 5557 5560 5564 5568 5572 5577 5581 5586 5592 5598 5603 5609 5615 5621 5627 5633 5639 5645 5651 5656 5662 5668 5673 5678 5683 5688 5692 5696 5700 5704 5708 5712 5716 5720 5723 5726 5729 5732 5735 5737 5739 5741 5743
5542 5543 5544 5546 5546 5547 5549 5551 5554 5558 5562 5566 5571 5575 5580 5586 5591 5597 5603 5609 5615 5620 5627 5633 5639 5645 5651 5656 5662 5667 5672 5677 5681 5686 5690 5694 5698 5702 5706 5710 5713 5717 5720 5723 5726 5728 5730 5732 5734
5536 5536 5537 5538 5539 5540 5541 5545 5546 5549 5553 5556 5560 5565 5570 5575 5579 5585 5591 5596 5602 5608 5614 5620 5627 5633 5639 5645 5650 5656 5661 5666 5670 5675 5679 5683 5688 5692 5696 5700 5703 5707 5710 5713 5716 5718 5720 5722 5724
5530 5530 5530 5532 5532 5532 5533 5538 5538 5541 5543 5547 5551 5555 5559 5564 5569 5574 5579 5585 5590 5596 5602 5608 5614 5621 5627 5633 5639 5644 5649 5654 5659 5664 5668 5673 5677 5681 5686 5689 5693 5697 5700 5703 5706 5708 5711 5712 5714